TimeCST,TemperatureF,Dew PointF,Humidity,Sea Level PressureIn,VisibilityMPH,Wind Direction,Wind SpeedMPH,Gust SpeedMPH,PrecipitationIn,Events,Conditions,WindDirDegrees,DateUTC
12:15 AM,54.3,53.6,97,30.23,10.0,NNW,5.8,-,N/A,,Overcast,330,2013-11-23 06:15:00
12:35 AM,53.8,53.2,98,30.23,10.0,NNW,8.1,-,N/A,,Overcast,340,2013-11-23 06:35:00
12:55 AM,53.8,53.2,98,30.23,10.0,NNW,8.1,16.1,N/A,,Overcast,340,2013-11-23 06:55:00
1:15 AM,53.6,53.1,98,30.23,10.0,NNW,8.1,-,N/A,,Overcast,330,2013-11-23 07:15:00
1:35 AM,53.1,52.7,99,30.24,7.0,NW,11.5,-,N/A,,Overcast,320,2013-11-23 07:35:00
1:55 AM,52.7,52.3,99,30.23,3.0,NW,9.2,17.3,N/A,,Overcast,320,2013-11-23 07:55:00
2:15 AM,52.5,52.2,99,30.23,2.5,NNW,9.2,-,N/A,,Overcast,330,2013-11-23 08:15:00
2:35 AM,52.2,52.0,99,30.23,2.5,NNW,8.1,-,N/A,,Overcast,330,2013-11-23 08:35:00
2:55 AM,52.2,52.0,99,30.22,2.5,NNW,5.8,-,N/A,,Overcast,340,2013-11-23 08:55:00
3:15 AM,52.2,52.0,99,30.23,3.0,NNW,6.9,-,N/A,,Overcast,330,2013-11-23 09:15:00
3:35 AM,52.3,52.2,99,30.23,2.0,NW,6.9,-,N/A,,Overcast,320,2013-11-23 09:35:00
3:55 AM,52.2,52.0,99,30.23,1.8,NNW,8.1,-,N/A,,Overcast,330,2013-11-23 09:55:00
4:15 AM,51.8,51.8,100,30.23,2.0,NNW,9.2,-,N/A,,Overcast,330,2013-11-23 10:15:00
4:35 AM,51.8,51.8,100,30.24,2.5,NNW,6.9,16.1,N/A,,Overcast,330,2013-11-23 10:35:00
4:55 AM,51.8,51.6,99,30.24,2.5,NNW,10.4,16.1,N/A,,Overcast,330,2013-11-23 10:55:00
5:15 AM,51.8,51.8,100,30.24,2.5,NNW,9.2,-,N/A,,Overcast,330,2013-11-23 11:15:00
5:35 AM,52.0,51.8,99,30.25,2.5,NNW,8.1,-,N/A,,Overcast,340,2013-11-23 11:35:00
5:55 AM,52.3,52.2,99,30.24,3.0,NNW,9.2,-,N/A,,Overcast,340,2013-11-23 11:55:00
6:15 AM,52.7,52.7,100,30.24,3.0,North,9.2,-,N/A,,Overcast,350,2013-11-23 12:15:00
6:35 AM,53.2,53.1,99,30.24,4.0,North,11.5,-,N/A,,Overcast,350,2013-11-23 12:35:00
6:55 AM,53.8,53.6,99,30.26,4.0,NNW,9.2,-,N/A,,Overcast,340,2013-11-23 12:55:00
7:15 AM,54.3,54.0,99,30.26,4.0,North,8.1,-,N/A,,Overcast,360,2013-11-23 13:15:00
7:35 AM,54.9,54.5,99,30.27,10.0,North,8.1,18.4,0.01,,Overcast,360,2013-11-23 13:35:00
7:55 AM,54.5,53.6,97,30.28,7.0,North,10.4,17.3,0.01,,Overcast,360,2013-11-23 13:55:00
8:15 AM,53.8,52.5,95,30.29,10.0,North,11.5,21.9,N/A,,Overcast,360,2013-11-23 14:15:00
8:35 AM,53.1,52.0,96,30.29,10.0,North,10.4,16.1,N/A,,Overcast,360,2013-11-23 14:35:00
8:55 AM,52.9,51.3,94,30.30,10.0,North,9.2,17.3,N/A,,Overcast,360,2013-11-23 14:55:00
9:15 AM,52.2,50.9,95,30.31,10.0,North,12.7,18.4,N/A,,Overcast,350,2013-11-23 15:15:00
9:35 AM,51.8,50.7,96,30.31,10.0,North,10.4,18.4,N/A,,Overcast,350,2013-11-23 15:35:00
9:55 AM,51.8,49.3,91,30.31,10.0,North,15.0,20.7,N/A,,Overcast,10,2013-11-23 15:55:00
10:15 AM,52.0,49.6,92,30.32,10.0,North,11.5,17.3,N/A,,Overcast,360,2013-11-23 16:15:00
10:35 AM,50.9,49.3,94,30.32,7.0,North,10.4,17.3,N/A,,Overcast,350,2013-11-23 16:35:00
10:55 AM,51.4,49.3,92,30.33,10.0,North,12.7,17.3,N/A,,Overcast,10,2013-11-23 16:55:00
11:15 AM,51.3,48.6,90,30.33,10.0,North,10.4,-,N/A,,Overcast,350,2013-11-23 17:15:00
11:35 AM,51.1,48.6,91,30.31,10.0,North,10.4,17.3,N/A,,Overcast,360,2013-11-23 17:35:00
11:55 AM,50.7,49.1,94,30.31,7.0,North,11.5,18.4,N/A,,Overcast,10,2013-11-23 17:55:00
12:15 PM,51.1,48.4,90,30.31,10.0,North,9.2,18.4,N/A,,Overcast,350,2013-11-23 18:15:00
12:35 PM,51.1,47.8,89,30.30,10.0,North,11.5,18.4,N/A,,Overcast,360,2013-11-23 18:35:00
12:55 PM,51.3,48.4,90,30.29,10.0,North,12.7,20.7,N/A,,Overcast,360,2013-11-23 18:55:00
1:15 PM,50.5,48.2,92,30.29,10.0,North,13.8,20.7,N/A,,Overcast,360,2013-11-23 19:15:00
1:35 PM,50.4,47.8,91,30.29,10.0,North,10.4,20.7,N/A,,Overcast,360,2013-11-23 19:35:00
1:55 PM,49.8,47.8,93,30.28,7.0,North,13.8,23.0,N/A,Rain,Rain,350,2013-11-23 19:55:00
2:15 PM,49.3,47.8,95,30.28,7.0,North,13.8,20.7,0.01,Rain,Rain,350,2013-11-23 20:15:00
2:35 PM,48.9,47.5,95,30.29,7.0,North,11.5,16.1,0.03,Rain,Rain,360,2013-11-23 20:35:00
2:55 PM,48.6,47.3,95,30.29,5.0,North,11.5,21.9,0.06,Rain,Rain,360,2013-11-23 20:55:00
3:15 PM,48.7,46.9,93,30.29,10.0,North,11.5,18.4,0.01,,Light Drizzle,10,2013-11-23 21:15:00
3:35 PM,49.1,46.9,92,30.29,10.0,North,10.4,16.1,0.01,,Overcast,360,2013-11-23 21:35:00
3:55 PM,48.6,46.4,92,30.31,10.0,North,10.4,17.3,0.01,,Overcast,360,2013-11-23 21:55:00
4:15 PM,48.4,45.9,91,30.31,10.0,North,10.4,16.1,N/A,,Overcast,360,2013-11-23 22:15:00
4:35 PM,48.4,45.7,90,30.31,10.0,North,12.7,16.1,N/A,,Overcast,10,2013-11-23 22:35:00
4:55 PM,48.2,45.9,92,30.31,10.0,North,8.1,19.6,N/A,,Overcast,360,2013-11-23 22:55:00
5:15 PM,48.2,45.5,90,30.31,10.0,North,10.4,19.6,N/A,Rain,Light Rain,10,2013-11-23 23:15:00
5:35 PM,47.7,45.5,92,30.31,10.0,NNE,13.8,26.5,0.01,Rain,Light Rain,20,2013-11-23 23:35:00
5:55 PM,47.7,45.7,93,30.32,10.0,North,8.1,-,0.01,,Light Drizzle,350,2013-11-23 23:55:00
6:15 PM,47.3,45.7,94,30.33,10.0,North,11.5,17.3,N/A,,Overcast,360,2013-11-24 00:15:00
6:35 PM,47.3,45.5,93,30.34,10.0,North,9.2,17.3,N/A,,Overcast,350,2013-11-24 00:35:00
6:55 PM,47.3,45.5,93,30.34,10.0,North,10.4,18.4,N/A,,Overcast,360,2013-11-24 00:55:00
7:15 PM,47.3,44.8,91,30.34,10.0,North,11.5,20.7,N/A,,Overcast,10,2013-11-24 01:15:00
7:35 PM,47.3,44.6,90,30.35,10.0,North,11.5,18.4,N/A,,Overcast,10,2013-11-24 01:35:00
7:55 PM,47.3,43.9,88,30.36,10.0,North,11.5,19.6,N/A,,Overcast,10,2013-11-24 01:55:00
8:15 PM,47.3,44.1,88,30.36,10.0,North,12.7,17.3,N/A,,Overcast,360,2013-11-24 02:15:00
8:35 PM,46.8,43.7,89,30.37,10.0,North,12.7,18.4,N/A,,Overcast,360,2013-11-24 02:35:00
8:55 PM,46.4,42.8,87,30.36,10.0,North,11.5,20.7,N/A,,Overcast,10,2013-11-24 02:55:00
9:15 PM,46.4,42.1,85,30.37,10.0,North,13.8,19.6,N/A,,Mostly Cloudy,360,2013-11-24 03:15:00
9:35 PM,46.2,41.9,85,30.39,10.0,North,10.4,20.7,N/A,,Mostly Cloudy,360,2013-11-24 03:35:00
9:55 PM,46.0,41.7,85,30.39,10.0,North,15.0,24.2,N/A,,Scattered Clouds,10,2013-11-24 03:55:00
10:15 PM,45.7,41.0,84,30.38,10.0,North,12.7,20.7,N/A,,Scattered Clouds,360,2013-11-24 04:15:00
10:35 PM,45.5,40.3,82,30.38,10.0,North,13.8,23.0,N/A,,Clear,10,2013-11-24 04:35:00
10:55 PM,45.1,39.4,80,30.38,10.0,NNE,13.8,19.6,N/A,,Clear,20,2013-11-24 04:55:00
11:15 PM,44.8,38.7,79,30.39,10.0,NNE,16.1,23.0,N/A,,Clear,20,2013-11-24 05:15:00
11:35 PM,44.4,37.6,77,30.38,10.0,North,15.0,21.9,N/A,,Clear,10,2013-11-24 05:35:00
11:55 PM,44.1,36.5,75,30.38,10.0,North,9.2,21.9,N/A,,Clear,10,2013-11-24 05:55:00